Back to catalog

BLOCK DM-SL R/B

AliveGEO
NORAD 44904·ROCKET BODY·🇷🇺 Russia

Launched Dec 24, 2019 from Baikonur Cosmodrome

Loading…

TLE

FreshSource: Space-Track

Epoch: Sep 13, 2026, 16:39 UTC

1 44904U 19095B   26256.69428067 -.00000038  00000-0  00000-0 0  9990
2 44904   5.5443  72.2981 0069600 278.2539  81.1938  1.02970428 25303

Track BLOCK DM-SL R/B in real time with AllMySat

Download on the App Store